Location: Brest
(52.1000°N, 23.7000°E)
Time: 04:17:46
(UTC+03:00)

GENESIS II - Visible Passes

Search period start: 21 October 2017 00:00
Search period end: 30 October 2017 23:00
Orbit: 507 x 527 km, 64.5° (Epoch: 20 October)

Date Brightness Start Highest point End Pass type
(mag) Time Alt. Az. Time Alt. Az. Time Alt. Az.
21 Oct 4.6 20:14:02 10° SW 20:17:58 62° NW 20:20:02 26° NNE visible
21 Oct 7.0 21:53:29 10° WNW 21:55:03 17° NW 21:55:03 17° NW visible
22 Oct 4.7 19:58:42 10° SW 20:02:38 61° NW 20:05:21 19° NE visible
22 Oct 6.8 21:38:11 10° WNW 21:40:23 18° NW 21:40:23 18° NW visible
23 Oct 4.7 19:43:23 10° WSW 19:47:19 59° NW 19:50:37 14° NE visible
23 Oct 6.6 21:22:53 10° WNW 21:25:37 19° NNW 21:25:37 19° NNW visible
24 Oct 4.8 19:28:03 10° WSW 19:31:59 58° NW 19:35:48 11° NE visible
24 Oct 6.5 21:07:35 10° WNW 21:10:27 19° NNW 21:10:48 19° NNW visible
25 Oct 4.8 19:12:43 10° WSW 19:16:39 56° NW 19:20:35 10° NE visible
25 Oct 6.5 20:52:17 10° WNW 20:55:08 19° NNW 20:55:57 18° N visible
26 Oct 4.9 18:57:23 10° WSW 19:01:18 55° NW 19:05:14 10° NE visible
26 Oct 6.5 20:36:59 10° WNW 20:39:49 18° NNW 20:41:03 16° N visible
27 Oct 4.9 18:42:03 10° WSW 18:45:58 54° NW 18:49:53 10° NE visible
27 Oct 6.5 20:21:41 10° WNW 20:24:29 18° NNW 20:26:07 15° N visible
28 Oct 6.5 20:06:22 10° WNW 20:09:09 18° NNW 20:11:10 13° NNE visible
28 Oct 7.4 21:46:07 10° NNW 21:46:10 10° NNW 21:46:10 10° NNW visible
29 Oct 6.5 18:51:03 10° WNW 18:53:49 18° NNW 18:56:12 12° NNE visible
29 Oct 7.2 20:30:47 10° NNW 20:31:12 11° NNW 20:31:12 11° NNW visible
30 Oct 6.5 18:35:44 10° WNW 18:38:30 18° NNW 18:41:12 10° NNE visible
30 Oct 7.1 20:15:27 10° NNW 20:16:13 12° NNW 20:16:13 12° NNW visible
